Location: Cuiry
(49.3858°N, 3.7708°E)
Time: 23:35:12
(UTC+00:00)

NOSS 3-4 (C) - Pass Details

Date: 12 January 2026
Orbit: 773 x 1438 km, 63.4° (Epoch: 26 December)

Event Time Altitude Azimuth Distance (km) Brightness Sun altitude
Rises 17:32:02 0° 186° (S) 3,235 6.6 -12.9°
Reaches altitude 10° 17:34:38 10° 175° (S) 2,326 5.7 -13.3°
Maximum altitude 17:39:08 29° 116° (ESE) 1,438 4.0 -14.0°
Enters shadow 17:41:36 21° 75° (ENE) 1,798 4.3 -14.4°
